Flag for Trinidad and Tobago Weather past 2 weeks in Port of Spain, Trinidad and Tobago

Now
79 °F

Passing clouds.


Feels Like: 83 °F
Forecast: 81 / 90 °F
Wind: No wind

Location: Piarco International Airport - Trinidad

Current Time: Aug 31, 2015 at 1:24:50 AM

Latest Report: Aug 31, 2015 at 12:00 AM


Visibility: N/A

Pressure: 29.95 "Hg

Humidity: 94%

Dew point: 77 °F

Location of Port of SpainLocation

Historic Weather in Port of Spain — Graph

°F

Port of Spain temperature yesterday

Maximum temperature yesterday: 93 °F (at 1:00 PM)
Minimum temperature yesterday: 77 °F (at 5:00 AM)
Average temperature yesterday: 84 °F

Past Weeks' High & Low Weather Summary

 TemperatureHumidityPressure
High95 °F (Aug 25, 2:00 PM)100% (Aug 20, 6:00 AM)32.52 "Hg (Aug 20, 6:00 AM)
Low73 °F (Aug 19, 9:00 PM)46% (Aug 16, 2:00 PM)29.80 "Hg (Aug 22, 4:00 PM)
Average83 °F78%29.90 "Hg
* Reported Midnight between Aug 15 and Aug 16 — Midnight between Aug 30 and Aug 31, Port of Spain, Weather by CustomWeather, © 2015

Note: Actual official high and low records may vary slightly from our data, if they occured in-between our weather recording intervals... More about our weather records

Advertising

Port of Spain weather history for previous 24 hours

 ConditionsComfort  
Time TempWeatherWind HumidityBarometerVisibility
12:00 AM
Mon, Aug 31
79 °FPassing clouds.No wind94%29.95 "HgN/A
11:00 PM
Sun, Aug 30
79 °FPassing clouds.No wind89%29.95 "HgN/A
10:00 PM81 °FPassing clouds.No wind84%29.95 "HgN/A
9:00 PM81 °FPassing clouds.No wind84%29.95 "HgN/A
7:00 PM82 °FPassing clouds.7 mph84%29.92 "HgN/A
6:00 PM84 °FPassing clouds.8 mph74%29.92 "HgN/A
5:00 PM86 °FPassing clouds.7 mph70%29.89 "HgN/A
4:00 PM90 °FScattered clouds.9 mph63%29.89 "HgN/A
3:00 PM91 °FScattered clouds.14 mph59%29.89 "HgN/A
2:00 PM88 °FScattered clouds.14 mph70%29.89 "HgN/A
1:00 PM93 °FPartly sunny.10 mph56%29.92 "HgN/A
12:00 PM91 °FPartly sunny.12 mph59%29.95 "HgN/A
11:00 AM91 °FScattered clouds.12 mph63%29.95 "HgN/A
10:00 AM90 °FScattered clouds.12 mph67%29.98 "HgN/A
9:00 AM88 °FScattered showers. Passing clouds.8 mph70%29.95 "HgN/A
8:00 AM84 °FPassing clouds.9 mph84%29.95 "HgN/A
7:00 AM79 °FPassing clouds.No wind89%29.92 "HgN/A
6:00 AM77 °FPassing clouds.No wind89%29.89 "HgN/A
5:00 AM77 °FSprinkles. Passing clouds.9 mph94%29.89 "HgN/A
4:00 AM79 °FPassing clouds.No wind94%29.89 "HgN/A
3:00 AM79 °FPassing clouds.No wind94%29.89 "HgN/A
2:00 AM79 °FPassing clouds.No wind94%29.89 "HgN/A
1:00 AM79 °FPassing clouds.No wind94%29.89 "HgN/A
Weather by CustomWeather, © 2015

See weather overviewHow to use our weather pages